• In Hungary
  • List of Countries
  • For 7 days
  • Water Temperature
  • Satellite Maps
  • Weather Map
  • News
  • Weather Widgets
  • user-avatar
    Login

    Hourly Weather Ahmadabad

    Today, 26 September, Tuesday

    Time Temperature Precipitation Wind Pressure Humidity
    00:00 +30°C° 0 mm 2 mps 751 mmHg 66%
    01:00 +30°C° 0 mm 2 mps 751 mmHg 69%
    02:00 +29°C° 0 mm 2 mps 751 mmHg 71%
    03:00 +29°C° 0 mm 2 mps 751 mmHg 73%
    04:00 +29°C° 0 mm 2 mps 751 mmHg 74%
    05:00 +28°C° 0 mm 2 mps 751 mmHg 74%
    06:00 +29°C° 0 mm 3 mps 751 mmHg 72%
    07:00 +30°C° 0 mm 3 mps 752 mmHg 71%
    08:00 +30°C° 0 mm 3 mps 752 mmHg 69%
    09:00 +32°C° 0 mm 2 mps 752 mmHg 62%
    10:00 +34°C° 0 mm 2 mps 752 mmHg 55%
    11:00 +35°C° 0 mm 2 mps 752 mmHg 49%
    12:00 +36°C° 0 mm 2 mps 751 mmHg 45%
    13:00 +37°C° 0 mm 2 mps 751 mmHg 42%
    14:00 +38°C° 0 mm 2 mps 750 mmHg 39%
    15:00 +38°C° 0 mm 2 mps 750 mmHg 39%
    16:00 +38°C° 0 mm 2 mps 750 mmHg 40%
    17:00 +38°C° 0 mm 2 mps 750 mmHg 41%
    18:00 +36°C° 0 mm 2 mps 750 mmHg 43%
    19:00 +35°C° 0 mm 2 mps 751 mmHg 46%
    20:00 +34°C° 0 mm 2 mps 751 mmHg 48%
    21:00 +32°C° 0 mm 2 mps 751 mmHg 50%
    22:00 +32°C° 0 mm 2 mps 751 mmHg 53%
    23:00 +31°C° 0 mm 2 mps 752 mmHg 55%

    Tomorrow, 27 September, Wednesday

    Time Temperature Precipitation Wind Pressure Humidity
    00:00 +31°C° 0 mm 2 mps 751 mmHg 57%
    01:00 +31°C° 0 mm 2 mps 751 mmHg 59%
    02:00 +30°C° 0 mm 2 mps 751 mmHg 62%
    03:00 +30°C° 0 mm 2 mps 751 mmHg 63%
    04:00 +29°C° 0 mm 2 mps 751 mmHg 64%
    05:00 +29°C° 0 mm 2 mps 751 mmHg 65%
    06:00 +30°C° 0 mm 2 mps 751 mmHg 64%
    07:00 +30°C° 0 mm 2 mps 752 mmHg 62%
    08:00 +31°C° 0 mm 2 mps 752 mmHg 61%
    09:00 +34°C° 0 mm 2 mps 752 mmHg 55%
    10:00 +35°C° 0 mm 2 mps 752 mmHg 50%
    11:00 +37°C° 0 mm 2 mps 752 mmHg 45%
    12:00 +37°C° 0 mm 2 mps 752 mmHg 42%
    13:00 +38°C° 0 mm 2 mps 751 mmHg 40%
    14:00 +39°C° 0 mm 2 mps 750 mmHg 37%
    15:00 +39°C° 0 mm 2 mps 750 mmHg 38%
    16:00 +39°C° 0 mm 2 mps 750 mmHg 38%
    17:00 +38°C° 0 mm 2 mps 750 mmHg 39%
    18:00 +37°C° 0 mm 2 mps 750 mmHg 41%
    19:00 +36°C° 0 mm 2 mps 750 mmHg 44%
    20:00 +35°C° 0 mm 2 mps 751 mmHg 46%
    21:00 +34°C° 0 mm 2 mps 751 mmHg 47%
    22:00 +32°C° 0 mm 2 mps 751 mmHg 48%
    23:00 +32°C° 0 mm 2 mps 751 mmHg 50%

    Day after tomorrow, 28 September, Thursday

    Time Temperature Precipitation Wind Pressure Humidity
    00:00 +32°C° 0 mm 2 mps 751 mmHg 50%
    01:00 +31°C° 0 mm 2 mps 750 mmHg 51%
    02:00 +31°C° 0 mm 2 mps 750 mmHg 52%
    03:00 +30°C° 0 mm 2 mps 750 mmHg 53%
    04:00 +30°C° 0 mm 2 mps 750 mmHg 54%
    05:00 +29°C° 0 mm 2 mps 750 mmHg 56%
    06:00 +30°C° 0 mm 2 mps 750 mmHg 57%
    07:00 +31°C° 0 mm 3 mps 751 mmHg 58%
    08:00 +31°C° 0 mm 3 mps 751 mmHg 59%
    09:00 +34°C° 0 mm 3 mps 751 mmHg 53%
    10:00 +35°C° 0 mm 3 mps 751 mmHg 48%
    11:00 +37°C° 0 mm 3 mps 751 mmHg 43%
    12:00 +38°C° 0 mm 3 mps 751 mmHg 40%
    13:00 +39°C° 0 mm 3 mps 750 mmHg 38%
    14:00 +40°C° 0 mm 4 mps 749 mmHg 35%
    15:00 +39°C° 0 mm 3 mps 749 mmHg 36%
    16:00 +39°C° 0 mm 3 mps 749 mmHg 37%
    17:00 +38°C° 0 mm 3 mps 749 mmHg 38%
    18:00 +37°C° 0 mm 3 mps 749 mmHg 39%
    19:00 +36°C° 0 mm 3 mps 750 mmHg 40%
    20:00 +34°C° 0 mm 3 mps 750 mmHg 41%
    21:00 +34°C° 0 mm 3 mps 751 mmHg 42%
    22:00 +32°C° 0 mm 2 mps 751 mmHg 43%
    23:00 +32°C° 0 mm 2 mps 751 mmHg 44%

    29 September, Friday

    Time Temperature Precipitation Wind Pressure Humidity
    00:00 +31°C° 0 mm 2 mps 751 mmHg 45%
    01:00 +30°C° 0 mm 3 mps 750 mmHg 47%
    02:00 +30°C° 0 mm 3 mps 750 mmHg 48%
    03:00 +29°C° 0 mm 3 mps 750 mmHg 52%
    04:00 +29°C° 0 mm 3 mps 750 mmHg 56%
    05:00 +29°C° 0 mm 3 mps 750 mmHg 60%
    06:00 +29°C° 0 mm 3 mps 750 mmHg 61%
    07:00 +30°C° 0 mm 3 mps 751 mmHg 63%
    08:00 +30°C° 0 mm 3 mps 751 mmHg 64%
    09:00 +33°C° 0 mm 3 mps 751 mmHg 57%
    10:00 +35°C° 0 mm 3 mps 751 mmHg 49%
    11:00 +37°C° 0 mm 3 mps 751 mmHg 42%
    12:00 +37°C° 0 mm 3 mps 750 mmHg 38%
    13:00 +38°C° 0 mm 3 mps 750 mmHg 34%
    14:00 +39°C° 0 mm 3 mps 749 mmHg 31%
    15:00 +39°C° 0 mm 3 mps 749 mmHg 31%
    16:00 +38°C° 0 mm 3 mps 749 mmHg 32%
    17:00 +38°C° 0 mm 3 mps 749 mmHg 33%
    18:00 +37°C° 0 mm 3 mps 749 mmHg 34%
    19:00 +35°C° 0 mm 3 mps 750 mmHg 35%
    20:00 +34°C° 0 mm 2 mps 750 mmHg 36%
    21:00 +32°C° 0 mm 2 mps 751 mmHg 37%
    22:00 +32°C° 0 mm 2 mps 751 mmHg 39%
    23:00 +31°C° 0 mm 2 mps 751 mmHg 41%

    30 September, Saturday

    Time Temperature Precipitation Wind Pressure Humidity
    00:00 +30°C° 0 mm 3 mps 751 mmHg 45%
    01:00 +30°C° 0 mm 3 mps 751 mmHg 50%
    02:00 +29°C° 0 mm 3 mps 750 mmHg 54%
    03:00 +29°C° 0 mm 3 mps 750 mmHg 58%
    04:00 +28°C° 0 mm 3 mps 751 mmHg 62%
    05:00 +28°C° 0 mm 3 mps 751 mmHg 66%
    06:00 +29°C° 0 mm 3 mps 751 mmHg 67%
    07:00 +29°C° 0 mm 3 mps 752 mmHg 67%
    08:00 +30°C° 0 mm 3 mps 752 mmHg 68%
    09:00 +33°C° 0 mm 3 mps 752 mmHg 59%
    10:00 +35°C° 0 mm 3 mps 752 mmHg 50%
    11:00 +37°C° 0 mm 3 mps 752 mmHg 42%
    12:00 +38°C° 0 mm 3 mps 751 mmHg 38%
    13:00 +39°C° 0 mm 3 mps 751 mmHg 34%
    14:00 +39°C° 0 mm 3 mps 750 mmHg 30%
    15:00 +39°C° 0 mm 3 mps 750 mmHg 31%
    16:00 +39°C° 0 mm 3 mps 750 mmHg 32%
    17:00 +38°C° 0 mm 3 mps 750 mmHg 33%
    18:00 +37°C° 0 mm 3 mps 750 mmHg 34%
    19:00 +35°C° 0 mm 3 mps 751 mmHg 36%
    20:00 +34°C° 0 mm 3 mps 751 mmHg 38%
    21:00 +32°C° 0 mm 2 mps 751 mmHg 39%
    22:00 +32°C° 0 mm 2 mps 752 mmHg 41%
    23:00 +31°C° 0 mm 2 mps 752 mmHg 43%

    1 October, Sunday

    Time Temperature Precipitation Wind Pressure Humidity
    00:00 +31°C° 0 mm 3 mps 751 mmHg 46%
    01:00 +30°C° 0 mm 3 mps 751 mmHg 50%
    02:00 +30°C° 0 mm 3 mps 751 mmHg 53%
    03:00 +29°C° 0 mm 3 mps 751 mmHg 56%
    04:00 +29°C° 0 mm 3 mps 751 mmHg 60%
    05:00 +28°C° 0 mm 3 mps 751 mmHg 63%
    06:00 +29°C° 0 mm 3 mps 751 mmHg 65%
    07:00 +30°C° 0 mm 4 mps 752 mmHg 67%
    08:00 +30°C° 0 mm 4 mps 752 mmHg 69%
    09:00 +33°C° 0 mm 4 mps 752 mmHg 61%
    10:00 +35°C° 0 mm 4 mps 752 mmHg 52%
    11:00 +37°C° 0 mm 4 mps 752 mmHg 44%
    12:00 +38°C° 0 mm 4 mps 751 mmHg 39%
    13:00 +40°C° 0 mm 4 mps 751 mmHg 35%
    14:00 +41°C° 0 mm 4 mps 750 mmHg 31%
    15:00 +41°C° 0 mm 4 mps 750 mmHg 32%
    16:00 +40°C° 0 mm 4 mps 750 mmHg 33%
    17:00 +38°C° 0 mm 3 mps 750 mmHg 34%
    18:00 +37°C° 0 mm 3 mps 750 mmHg 36%
    19:00 +35°C° 0 mm 3 mps 750 mmHg 38%
    20:00 +34°C° 0 mm 3 mps 751 mmHg 39%
    21:00 +33°C° 0 mm 3 mps 751 mmHg 42%
    22:00 +33°C° 0 mm 3 mps 751 mmHg 44%
    23:00 +31°C° 0 mm 2 mps 751 mmHg 46%
    Show more